TimePDT,TemperatureF,Dew PointF,Humidity,Sea Level PressureIn,VisibilityMPH,Wind Direction,Wind SpeedMPH,Gust SpeedMPH,PrecipitationIn,Events,Conditions,WindDirDegrees,DateUTC
12:53 AM,62.1,51.1,67,29.93,10.0,ENE,3.5,-,N/A,,Overcast,60,2013-09-17 07:53:00
1:53 AM,62.1,48.9,62,29.92,10.0,ENE,6.9,-,N/A,,Overcast,70,2013-09-17 08:53:00
2:53 AM,62.1,48.9,62,29.91,10.0,ENE,5.8,-,N/A,,Overcast,60,2013-09-17 09:53:00
3:53 AM,62.1,48.9,62,29.90,10.0,NE,3.5,-,N/A,,Overcast,40,2013-09-17 10:53:00
4:53 AM,61.0,50.0,67,29.89,10.0,Calm,Calm,-,N/A,,Overcast,0,2013-09-17 11:53:00
5:53 AM,61.0,50.0,67,29.88,10.0,Variable,3.5,-,N/A,,Overcast,0,2013-09-17 12:53:00
6:53 AM,61.0,51.1,70,29.89,10.0,Calm,Calm,-,N/A,,Overcast,0,2013-09-17 13:53:00
7:53 AM,61.0,50.0,67,29.88,10.0,Calm,Calm,-,N/A,,Overcast,0,2013-09-17 14:53:00
8:53 AM,62.1,50.0,65,29.88,10.0,Calm,Calm,-,N/A,,Overcast,0,2013-09-17 15:53:00
9:53 AM,62.1,50.0,65,29.88,10.0,Calm,Calm,-,N/A,,Overcast,0,2013-09-17 16:53:00
10:53 AM,63.0,51.1,65,29.88,10.0,Calm,Calm,-,N/A,,Overcast,0,2013-09-17 17:53:00
11:29 AM,62.6,50.0,63,29.88,10.0,Calm,Calm,-,N/A,,Overcast,0,2013-09-17 18:29:00
11:53 AM,63.0,50.0,63,29.88,10.0,Calm,Calm,-,N/A,,Overcast,0,2013-09-17 18:53:00
12:53 PM,62.1,51.1,67,29.89,10.0,Calm,Calm,-,N/A,,Overcast,0,2013-09-17 19:53:00
1:53 PM,63.0,52.0,67,29.89,10.0,SE,4.6,-,N/A,,Overcast,140,2013-09-17 20:53:00
2:53 PM,64.0,51.1,63,29.89,10.0,SE,3.5,-,N/A,,Overcast,130,2013-09-17 21:53:00
3:53 PM,64.9,46.0,50,29.88,10.0,Variable,3.5,-,N/A,,Overcast,0,2013-09-17 22:53:00
4:53 PM,64.9,50.0,58,29.87,10.0,SE,5.8,-,N/A,,Overcast,140,2013-09-17 23:53:00
5:53 PM,64.0,50.0,60,29.88,10.0,SE,3.5,-,N/A,,Overcast,130,2013-09-18 00:53:00
6:53 PM,63.0,50.0,63,29.89,10.0,WSW,3.5,-,N/A,,Mostly Cloudy,240,2013-09-18 01:53:00
7:53 PM,62.1,48.9,62,29.90,10.0,ESE,3.5,-,N/A,,Overcast,120,2013-09-18 02:53:00
8:53 PM,62.1,48.9,62,29.92,10.0,East,3.5,-,N/A,,Overcast,100,2013-09-18 03:53:00
9:53 PM,61.0,51.1,70,29.93,10.0,SE,3.5,-,0.00,,Overcast,130,2013-09-18 04:53:00
10:53 PM,60.1,52.0,75,29.94,10.0,SE,5.8,-,N/A,,Overcast,140,2013-09-18 05:53:00
11:53 PM,60.1,52.0,75,29.94,10.0,ESE,5.8,-,N/A,,Overcast,120,2013-09-18 06:53:00